This is the latest recevied weather packets stored in our database for station/object N6SPP. If no packets are shown the sender has not sent any weather packets the latest 10 day(s).
| Time | Temp. | Humidity | Pressure | Rain* | Wind** | Luminosity | Snow |
|---|---|---|---|---|---|---|---|
| 1777618863 | 19.44° C | 45% | 1014.5 hPa | 0 mm | - | 0 W/m² | - |
| 1777618562 | 19.44° C | 41% | 1014.5 hPa | 0 mm | - | 0 W/m² | - |
| 1777618259 | 20° C | 40% | 1014.5 hPa | 0 mm | - | 0 W/m² | - |
| 1777617955 | 19.44° C | 41% | 1014.7 hPa | 0 mm | - | 0 W/m² | - |
| 1777617652 | 20° C | 42% | 1014.5 hPa | 0 mm | - | 0 W/m² | - |
| 1777617348 | 20° C | 40% | 1014.6 hPa | 0 mm | - | 0 W/m² | - |
| 1777617046 | 20° C | 41% | 1014.5 hPa | 0 mm | - | 0 W/m² | - |
| 1777616745 | 20° C | 42% | 1014.2 hPa | 0 mm | - | 0 W/m² | - |
| 1777616440 | 20° C | 41% | 1014.4 hPa | 0 mm | - | 0 W/m² | - |
| 1777616137 | 19.44° C | 41% | 1014.4 hPa | 0 mm | - | 0 W/m² | - |
| 1777615834 | 20° C | 45% | 1014.7 hPa | 0 mm | - | 0 W/m² | - |
| 1777615532 | 20° C | 41% | 1014.4 hPa | 0 mm | - | 0 W/m² | - |
| 1777615227 | 20° C | 41% | 1014.4 hPa | 0 mm | - | 0 W/m² | - |
| 1777614927 | 20° C | 43% | 1014.4 hPa | 0 mm | - | 0 W/m² | - |
| 1777614624 | 20° C | 44% | 1014.6 hPa | 0 mm | - | 0 W/m² | - |
| 1777614319 | 20° C | 43% | 1014.6 hPa | 0 mm | - | 0 W/m² | - |
| 1777614015 | 19.44° C | 46% | 1014.5 hPa | 0 mm | - | 0 W/m² | - |
| 1777613710 | 20° C | 46% | 1014.4 hPa | 0 mm | - | 0 W/m² | - |
| 1777613408 | 20° C | 47% | 1014.5 hPa | 0 mm | - | 0 W/m² | - |
| 1777613104 | 20° C | 45% | 1014.6 hPa | 0 mm | - | 0 W/m² | - |
| 1777612801 | 20.56° C | 41% | 1014.4 hPa | 0 mm | - | 0 W/m² | - |
| 1777612497 | 20° C | 42% | 1014.6 hPa | 0 mm | - | 0 W/m² | - |
| 1777612192 | 20.56° C | 41% | 1014.4 hPa | 0 mm | - | 0 W/m² | - |
| 1777611888 | 20° C | 43% | 1014.3 hPa | 0 mm | - | 0 W/m² | - |
| 1777611584 | 20° C | 44% | 1014.4 hPa | 0 mm | - | 0 W/m² | - |
* Rain latest hour (hover to see other rain measurements)
** Current wind speed in m/s (hover to see current wind gust speed)